{"data":{"norad_id":59402,"epoch":"2026-05-24T20:47:27.608064Z","epoch_age_seconds":83723,"freshness":"FRESH","line1":"1 59402U 24064E   26144.86629176  .00000379  00000+0  23281-4 0  9996","line2":"2 59402  43.0030 346.1717 0000988 284.4814  75.5928 15.27580136120879","mean_motion":15.27580136,"eccentricity":9.88e-5,"inclination_deg":43.003,"raan_deg":346.1717,"arg_perigee_deg":284.4814,"mean_anomaly_deg":75.5928,"bstar":2.3281e-5,"rev_number":12087,"period_min":94.266740321111,"perigee_km":482.3708036607,"apogee_km":483.72657395281,"semimajor_km":6861.1856888068,"source":"CELESTRAK","updated_at":"2026-05-25T13:38:18.939531Z"}}